Weather reports worldwide

Advertisment
Sheffield, United Kingdom (99107): temperature & dewpoint: 11.12.2017 23:00:00 - 17.12.2017 23:00:00 (GMT)Sheffield, United Kingdom (99107): sunshine duration: 11.12.2017 23:00:00 - 17.12.2017 23:00:00 (GMT)Sheffield, United Kingdom (99107): precipitation: 11.12.2017 23:00:00 - 17.12.2017 23:00:00 (GMT)
Date & Time tt [°C] td [°C] sd [min] rr [mm]
17.12.2017 23:00:00 5,1 0,8 0 -
17.12.2017 22:00:00 5,5 1,2 0 0,0
17.12.2017 21:00:00 6,0 2,7 0 0,0
17.12.2017 20:00:00 6,9 2,7 0 0,0
17.12.2017 19:00:00 7,7 4,0 0 0,0
17.12.2017 18:00:00 9,3 7,4 0 0,0
17.12.2017 17:00:00 7,5 7,3 0 0,0
17.12.2017 16:00:00 6,4 5,8 0 0,2
17.12.2017 15:00:00 6,6 5,8 0 0,0
17.12.2017 14:00:00 6,9 5,7 0 0,0
17.12.2017 13:00:00 5,7 5,1 0 0,0
17.12.2017 12:00:00 4,6 3,7 0 0,2
17.12.2017 11:00:00 4,7 3,9 0 0,6
17.12.2017 10:00:00 4,4 3,0 0 0,0
17.12.2017 09:00:00 4,4 2,9 0 0,0
17.12.2017 08:00:00 3,1 2,1 0 0,0
17.12.2017 07:00:00 2,6 1,6 0 0,2
17.12.2017 06:00:00 1,7 0,6 0 0,0
17.12.2017 05:00:00 1,3 0,3 0 0,0
17.12.2017 04:00:00 0,4 -0,9 0 0,0
17.12.2017 03:00:00 1,4 -0,1 0 0,0
17.12.2017 02:00:00 -1,2 -2,5 0 0,0
17.12.2017 01:00:00 -1,2 -2,4 0 0,0
17.12.2017 00:00:00 -0,3 -1,4 - 0,0
16.12.2017 23:00:00 -0,3 -1,5 0 0,0
16.12.2017 22:00:00 0,6 -0,8 0 0,0
16.12.2017 21:00:00 0,7 -1,8 0 0,0
16.12.2017 20:00:00 1,8 -1,5 0 0,0
16.12.2017 19:00:00 1,9 -1,0 0 0,0
16.12.2017 18:00:00 1,6 -0,6 0 0,0
16.12.2017 17:00:00 2,2 0,4 0 0,0
16.12.2017 16:00:00 3,3 0,7 0 0,0
16.12.2017 15:00:00 3,8 0,8 0 0,0
16.12.2017 14:00:00 4,0 1,1 6 0,0
16.12.2017 13:00:00 3,9 1,1 12 0,0
16.12.2017 12:00:00 3,0 0,1 6 0,0
16.12.2017 11:00:00 3,4 -0,1 0 0,0
16.12.2017 10:00:00 3,0 -0,9 0 0,0
16.12.2017 09:00:00 2,6 -2,4 0 0,0
16.12.2017 08:00:00 1,5 -3,7 0 0,0
16.12.2017 07:00:00 0,8 -3,5 0 0,0
16.12.2017 06:00:00 1,1 -3,1 0 0,0
16.12.2017 05:00:00 1,1 -2,9 0 0,0
16.12.2017 04:00:00 1,8 -2,6 0 0,0
16.12.2017 03:00:00 1,8 -2,3 0 0,0
16.12.2017 02:00:00 1,8 -2,4 0 0,0
16.12.2017 01:00:00 1,8 -2,4 0 0,0
16.12.2017 00:00:00 2,0 -2,1 - 0,0
15.12.2017 23:00:00 2,0 -1,8 0 0,0
15.12.2017 22:00:00 2,1 -1,4 0 0,0
15.12.2017 21:00:00 2,0 -1,3 0 0,0
15.12.2017 20:00:00 2,4 -0,8 0 0,0
15.12.2017 19:00:00 2,8 -0,8 0 0,0
15.12.2017 18:00:00 - - - 0,0
15.12.2017 17:00:00 3,8 0,7 0 0,0
15.12.2017 16:00:00 4,5 1,2 6 0,0
15.12.2017 15:00:00 4,5 1,7 6 0,0
15.12.2017 14:00:00 4,6 2,2 0 0,0
15.12.2017 13:00:00 4,9 1,8 54 0,0
15.12.2017 12:00:00 4,4 0,9 54 0,0
15.12.2017 11:00:00 3,3 0,7 60 0,0
15.12.2017 10:00:00 2,8 0,1 18 0,0
15.12.2017 09:00:00 2,8 0,1 0 0,0
15.12.2017 08:00:00 2,7 0,1 0 0,0
15.12.2017 07:00:00 2,9 0,6 0 0,0
15.12.2017 06:00:00 2,6 0,5 0 0,0
15.12.2017 05:00:00 2,3 0,5 0 0,0
15.12.2017 04:00:00 2,4 0,8 0 0,0
15.12.2017 03:00:00 1,8 0,5 0 0,0
15.12.2017 02:00:00 2,2 1,3 0 0,0
15.12.2017 01:00:00 2,7 1,6 0 0,0
15.12.2017 00:00:00 2,2 1,0 - 0,6
14.12.2017 23:00:00 2,7 1,4 0 1,0
14.12.2017 22:00:00 2,7 1,1 0 0,0
14.12.2017 21:00:00 3,4 1,5 0 0,0
14.12.2017 20:00:00 3,2 1,5 0 0,0
14.12.2017 19:00:00 2,6 1,5 0 1,6
14.12.2017 18:00:00 3,4 1,8 0 1,2
14.12.2017 17:00:00 4,2 1,5 0 0,0
14.12.2017 16:00:00 4,2 1,5 0 0,0
14.12.2017 15:00:00 4,6 1,2 0 0,0
14.12.2017 14:00:00 4,9 0,7 36 0,0
14.12.2017 13:00:00 4,8 1,0 6 0,0
14.12.2017 12:00:00 4,6 0,9 42 0,0
14.12.2017 11:00:00 4,0 1,1 0 0,0
14.12.2017 10:00:00 3,7 1,1 0 0,0
14.12.2017 09:00:00 3,4 1,3 0 0,0
14.12.2017 08:00:00 3,1 1,5 0 1,4
14.12.2017 07:00:00 2,4 1,5 0 2,6
14.12.2017 06:00:00 1,7 0,8 0 2,4
14.12.2017 05:00:00 3,1 1,3 0 0,6
14.12.2017 04:00:00 3,1 1,4 0 0,8
14.12.2017 03:00:00 2,5 1,7 0 0,6
14.12.2017 02:00:00 1,2 0,4 0 1,6
14.12.2017 01:00:00 1,4 0,3 0 1,4
14.12.2017 00:00:00 2,6 0,4 - 0,4
13.12.2017 23:00:00 2,3 0,8 0 0,6
13.12.2017 22:00:00 1,5 0,7 0 1,8
13.12.2017 21:00:00 1,8 0,5 0 1,0
13.12.2017 20:00:00 3,4 0,4 0 0,0
13.12.2017 19:00:00 3,5 0,6 0 0,0
13.12.2017 18:00:00 3,2 1,1 0 0,2
13.12.2017 17:00:00 4,0 1,3 0 0,0
13.12.2017 16:00:00 3,3 1,4 0 0,4
13.12.2017 15:00:00 4,2 2,2 0 0,4
13.12.2017 14:00:00 5,1 3,3 0 2,0
13.12.2017 13:00:00 5,4 4,3 0 2,6
13.12.2017 12:00:00 5,7 3,9 30 0,0
13.12.2017 11:00:00 5,0 3,6 6 0,0
13.12.2017 10:00:00 4,5 3,6 0 0,2
13.12.2017 09:00:00 4,1 3,2 0 0,0
13.12.2017 08:00:00 4,1 2,9 0 0,2
13.12.2017 07:00:00 4,9 3,1 0 0,0
13.12.2017 06:00:00 4,6 2,9 0 0,0
13.12.2017 05:00:00 4,9 3,2 0 0,0
13.12.2017 04:00:00 4,9 3,9 0 0,0
13.12.2017 03:00:00 3,9 3,1 0 0,0
13.12.2017 02:00:00 4,5 3,7 0 0,0
13.12.2017 01:00:00 3,3 2,6 0 0,0
13.12.2017 00:00:00 3,2 2,5 - 0,0
12.12.2017 23:00:00 2,9 2,2 0 0,4
12.12.2017 22:00:00 3,0 2,2 0 0,6
12.12.2017 21:00:00 2,8 1,9 0 0,8
12.12.2017 20:00:00 2,3 0,9 0 0,0
12.12.2017 19:00:00 2,4 0,3 0 0,0
12.12.2017 18:00:00 2,4 0,2 0 0,0
12.12.2017 17:00:00 2,0 -0,3 0 0,0
12.12.2017 16:00:00 2,1 -0,3 0 0,0
12.12.2017 15:00:00 2,5 -0,5 0 0,0
12.12.2017 14:00:00 3,0 -0,5 6 0,0
12.12.2017 13:00:00 2,5 -0,2 18 -
12.12.2017 12:00:00 3,5 0,3 36 0,4
12.12.2017 11:00:00 2,7 -0,2 54 0,0
12.12.2017 10:00:00 1,9 -0,7 48 0,0
12.12.2017 09:00:00 1,0 -1,5 0 0,0
12.12.2017 08:00:00 0,8 -2,1 0 0,0
12.12.2017 07:00:00 0,5 -1,7 0 0,0
12.12.2017 06:00:00 -1,3 -3,4 0 0,0
12.12.2017 05:00:00 -0,9 -3,7 0 0,0
12.12.2017 04:00:00 0,3 -3,1 0 0,0
12.12.2017 03:00:00 1,3 -1,6 0 0,0
12.12.2017 02:00:00 1,1 -1,5 0 0,0
12.12.2017 01:00:00 0,3 -1,8 0 0,0
12.12.2017 00:00:00 0,2 -1,7 - 0,0
11.12.2017 23:00:00 -0,2 -2,1 0 0,0

tt = temperature
td = dewpoint
sd = sunshine duration
rr = precipitation

Next stations